Flag for U.S.A. Weather past 2 weeks in Bridgeport, Connecticut, U.S.A.

Now
70 °F

Mostly cloudy.


Feels Like: 77 °F
Forecast: 53 / 69 °F
Wind: 16 mph from Northwest

Location: Sikorsky Memorial Airport

Current Time: Sep 22, 2014 at 12:31:28 PM

Latest Report: Sep 22, 2014 at 11:52 AM


Visibility: 10 mi

Pressure: 29.84 "Hg

Humidity: 55%

Dew point: 53 °F

Location of BridgeportLocation

Historic Weather in Bridgeport — Graph

°F

Bridgeport temperature yesterday

Maximum temperature yesterday: 77 °F (at 3:52 PM)
Minimum temperature yesterday: 67 °F (at 2:52 AM)
Average temperature yesterday: 71 °F

Past Weeks' High & Low Weather Summary

 TemperatureHumidityPressure
High80 °F (Sep 7, 4:52 PM)100% (Sep 21, 4:52 AM)30.39 "Hg (Sep 21, 4:52 AM)
Low50 °F (Sep 15, 5:52 AM)32% (Sep 18, 4:52 PM)29.60 "Hg (Sep 21, 11:52 PM)
Average65 °F69%30.09 "Hg
* Reported Sep 7 10:52 AM — Sep 22 10:52 AM, Bridgeport, Weather by CustomWeather, © 2014

Note: Actual official high and low records may vary slightly from our data, if they occured in-between our weather recording intervals... More about our weather records

Advertising

Bridgeport weather history for previous 24 hours

 ConditionsComfort  
Time TempWeatherWind HumidityBarometerVisibility
10:52 AM
Sep 22
70 °FScattered clouds.17 mph55%29.83 "Hg10 mi
9:52 AM68 °FSunny.12 mph61%29.82 "Hg10 mi
8:52 AM66 °FSunny.14 mph68%29.79 "Hg10 mi
7:52 AM64 °FSunny.10 mph75%29.76 "Hg10 mi
6:52 AM63 °FClear.10 mph81%29.73 "Hg10 mi
5:52 AM63 °FClear.7 mph78%29.70 "Hg10 mi
4:52 AM64 °FPassing clouds.8 mph81%29.67 "Hg10 mi
3:52 AM65 °FClear.6 mph85%29.64 "Hg10 mi
2:52 AM67 °FPassing clouds.9 mph85%29.62 "Hg10 mi
1:52 AM69 °FOvercast.7 mph87%29.63 "Hg10 mi
12:52 AM69 °FPassing clouds.5 mph96%29.61 "Hg8 mi
11:52 PM
Sep 21
70 °FFog.6 mph97%29.60 "Hg6 mi
10:52 PM70 °FClear.5 mph93%29.61 "Hg7 mi
9:52 PM70 °FFog.No wind93%29.61 "Hg5 mi
8:52 PM70 °FClear.No wind97%29.60 "Hg10 mi
7:52 PM71 °FPassing clouds.3 mph93%29.61 "Hg10 mi
6:52 PM72 °FPartly sunny.3 mph91%29.61 "Hg10 mi
5:52 PM74 °FScattered clouds.No wind88%29.62 "Hg10 mi
4:52 PM76 °FSunny.5 mph80%29.65 "Hg10 mi
3:52 PM77 °FScattered clouds.6 mph77%29.69 "Hg10 mi
2:52 PM75 °FScattered clouds.3 mph85%29.71 "Hg10 mi
1:52 PM74 °FSunny.No wind88%29.75 "Hg10 mi
12:52 PM74 °FSunny.6 mph85%29.79 "Hg10 mi
Weather by CustomWeather, © 2014

See weather overviewHow to use our weather pages